{"data":{"norad_id":59171,"epoch":"2026-09-20T21:01:34.880160Z","epoch_age_seconds":126356,"freshness":"FRESH","line1":"1 59171U 24044V   26263.87609815 -.00001503  00000+0 -45098-4 0  9990","line2":"2 59171  43.0036  84.9849 0001150 277.7598  82.3123 15.27573620143448","mean_motion":15.2757362,"eccentricity":0.000115,"inclination_deg":43.0036,"raan_deg":84.9849,"arg_perigee_deg":277.7598,"mean_anomaly_deg":82.3123,"bstar":-4.5098e-5,"rev_number":14344,"period_min":94.267142424206,"perigee_km":482.27916152332,"apogee_km":483.85723871935,"semimajor_km":6861.2052001213,"source":"CELESTRAK","updated_at":"2026-09-21T09:00:34.060545Z"}}